User: anonymous   Login
Location: Moscow
(55.7500°N, 37.5830°E)
Time: 09:12:08
(UTC+03:00)
Language:

Kosmos-337 - Orbit

View from above orbital plane
View from above orbital plane
View from above satellite
View from above satellite

Ground track
Ground track

The orbit data is extracted from the following two-line orbital elements,

1 04384U 70036B   22270.56530807 -.00000013  00000-0  12435-4 0  9996
2 04384  74.0324  25.9226 0053069 144.7779 226.4431 12.39223579371421
Epoch (UTC): 27 September 2022 13:34:02
Eccentricity: 0.0053069
inclination: 74.0324°
perigee height: 1468 km
apogee height: 1552 km
right ascension of ascending node: 25.9226°
argument of perigee: 144.7779°
revolutions per day: 12.39223579
mean anomaly at epoch: 226.4431°
orbit number at epoch: 37142

The dashed part of the orbit path shows where the satellite is in the earth's shadow,  

DLR